#timestamp,LO_Frequency,Hit,StdDev 
1711537215.4,286047001.8,N
1711537235.2,286047001.9,N
1711537255.0,286047002.2,N
1711537255.9,286047002.2,N
1711537275.8,286047002.5,N
1711537295.6,286046999.9,N
1711537315.5,286047000.5,N
1711537335.3,286047000.2,N
1711537355.1,286047002.8,N
1711537375.9,286047001.7,N
1711537395.7,286047002.2,N
1711537415.6,286047002.7,N
1711537435.4,286047000.0,N
1711537455.2,286047000.9,N
1711537475.1,286046998.3,N
1711537476.0,286046998.3,N
1711537495.8,286047001.0,N
1711537515.6,286047000.7,N
1711537535.5,286046998.2,N
1711537555.3,286046998.1,N
1711537575.2,286046999.8,N
1711537595.9,286047002.1,N
1711537615.3,286047002.1,N
1711537635.1,286047002.3,N
1711537655.9,286047004.0,N
1711537675.7,286046999.7,N
1711537695.5,286047002.2,N
1711537715.4,286047000.4,N
1711537735.2,286047001.0,N
1711537755.1,286047001.0,N
1711537756.0,286047001.0,N
1711537775.8,286047000.7,N
1711537795.7,286047001.0,N
1711537815.5,286047001.1,N
1711537835.3,286047000.8,N
1711537855.2,286047000.6,N
1711537875.0,286046998.4,N
1711537875.9,286046998.4,N
1711537895.7,286046998.7,N
1711537915.6,286046998.7,N
1711537935.4,286046998.2,N
1711537955.3,286047001.1,N
1711537975.1,286047000.5,N
1711537976.0,286047000.5,N
1711537995.8,286047002.4,N
1711538015.7,286047002.0,N
1711538035.5,286046999.9,N
1711538055.3,286046999.9,N
1711538075.2,286047002.7,N
1711538095.0,286047002.4,N
1711538095.9,286047002.4,N
1711538115.8,286047002.1,N
1711538135.6,286047001.9,N
1711538155.4,286047001.8,N
1711538175.3,286047001.5,N
1711538195.1,286047002.6,N
1711538215.9,286046999.7,N
1711538235.7,286047002.4,N
1711538255.5,286047001.5,N
1711538275.4,286047000.1,N
1711538295.2,286047002.8,N
1711538315.0,286047000.2,N
1711538316.0,286047000.2,N
1711538335.8,286046999.9,N
1711538355.6,286046999.8,N
1711538375.5,286047001.3,N
1711538395.3,286047006.0,Y
1711538415.1,286047005.4,P
1711538435.9,286047004.9,N
1711538455.7,286047012.3,P
1711538475.6,286047009.9,N
1711538495.4,286047008.7,N
1711538515.2,286047006.5,N
1711538535.1,286047007.1,N
1711538536.0,286047007.1,N
1711538555.8,286047005.0,N
1711538575.7,286047005.2,N
1711538595.5,286047005.0,N
1711538645.4,286047001.4,E
1711538655.3,286047002.1,N
1711538675.1,286047000.6,P
1711538695.9,286047000.4,N
1711538715.7,286046998.1,N
1711538735.6,286046998.5,N
1711538755.4,286046998.4,N
1711538775.2,286046999.4,N
1711538795.1,286046999.0,N
1711538796.0,286046999.0,N
1711538815.8,286047000.7,N
1711538835.6,286046998.1,N
1711538855.5,286047001.2,N
1711538875.3,286046998.3,N
1711538895.2,286046999.6,N
1711538915.9,286046997.0,N
1711538935.7,286046997.4,N
1711538955.6,286046996.8,N
1711538975.4,286046996.7,N
1711538995.2,286046996.6,N
1711539015.1,286046999.4,N
1711539016.0,286046999.4,N
1711539035.8,286046996.6,N
1711539055.7,286046999.5,N
1711539075.5,286046999.1,N
1711539095.3,286046996.6,N
1711539115.2,286046999.1,N
1711539135.0,286046999.1,N
1711539135.9,286046999.1,N
1711539155.7,286046999.3,N
1711539175.6,286046999.1,N
1711539195.4,286046999.5,N
1711539215.3,286046999.3,N
1711539235.1,286046996.7,N
1711539236.0,286046996.7,N
1711539255.8,286046997.8,N
1711539275.7,286046997.0,N
1711539295.5,286046996.6,N
1711539315.3,286046999.2,N
1711539335.2,286046997.0,N
1711539355.0,286046998.6,N
1711539355.9,286046998.6,N
1711539375.8,286046998.6,N
1711539395.6,286046998.7,N
1711539415.4,286046998.2,N
1711539435.3,286046999.3,N
1711539455.1,286046998.5,N
1711539475.8,286046998.6,N
1711539495.7,286046999.3,N
1711539515.5,286046998.7,N
1711539535.4,286046999.6,N
1711539555.2,286046999.2,N
1711539575.0,286046999.6,N
1711539575.9,286046999.6,N
1711539595.8,286046999.5,N
1711539615.6,286046999.1,N
1711539635.5,286046998.4,N
1711539655.3,286046998.6,N
1711539675.1,286046998.5,N
1711539695.9,286046998.2,N
1711539715.7,286046999.7,N
1711539735.6,286047000.5,N
1711539755.4,286047000.1,N
1711539775.2,286046999.3,N
1711539795.1,286046999.1,N
1711539796.0,286046999.1,N
1711539815.8,286046999.2,N
1711539835.7,286046999.5,N
1711539855.5,286046996.6,Y
1711539875.3,286046998.7,P
1711539895.2,286046999.5,P
1711539915.0,286046999.0,P
1711539915.9,286046999.0,Y
1711539935.8,286046998.4,P
1711539955.6,286047000.3,N
1711539975.4,286047000.4,N
1711539995.3,286046999.9,N
1711540015.1,286047000.1,N
1711540035.9,286047002.0,N
1711540055.7,286047001.7,N
1711540075.5,286047002.3,N
1711540095.4,286047002.2,N
1711540115.2,286047000.0,N
1711540135.0,286046999.9,N
1711540135.9,286046999.9,N
1711540155.8,286047000.8,N
1711540175.6,286047000.0,N
1711540195.5,286047000.1,N
1711540215.3,286046999.8,N
1711540235.1,286047000.5,N
1711540255.9,286046998.1,N
1711540275.7,286046998.5,N
1711540295.5,286047001.2,N
1711540315.4,286047000.9,N
1711540335.2,286047000.4,N
1711540355.1,286046999.8,N
1711540356.0,286046999.8,N
1711540375.8,286047002.1,N
1711540395.6,286047002.4,N
1711540415.5,286047002.4,N
1711540435.3,286046999.9,N
1711540455.2,286047000.5,N
1711540475.9,286047000.6,N
1711540495.7,286047000.4,N
1711540515.6,286047002.3,N
1711540535.4,286047000.2,N
1711540555.2,286047000.1,N
1711540575.1,286046999.7,N
1711540576.0,286046999.7,N
1711540595.8,286047000.3,N
1711540615.7,286047000.2,N
1711540635.5,286047000.5,N
1711540655.3,286047000.0,N
1711540675.2,286047001.7,N
1711540695.0,286047002.0,N
1711540695.9,286047002.0,N
1711540715.8,286047001.6,N
1711540735.6,286047002.1,N
1711540755.0,286047001.5,N
1711540755.9,286047001.5,N
1711540775.8,286047001.9,N
1711540795.6,286047001.5,N
